Location: Ertinghausen
(51.6624°N, 9.7874°E)
Time: 11:48:51
(UTC+00:00)

USA 267 - Pass Details

Date: 23 May 2024
Orbit: 1100 x 1107 km, 123.0° (Epoch: 21 May)

Event Time Altitude Azimuth Distance (km) Brightness Sun altitude
Rises 01:57:42 0° 72° (ENE) 3,921 7.2 -9.7°
Reaches altitude 10° 02:00:13 10° 69° (ENE) 2,962 6.6 -9.4°
Maximum altitude 02:06:35 59° 352° (N) 1,261 3.9 -8.8°
Drops below altitude 10° 02:12:58 10° 275° (W) 2,960 5.2 -8.2°
Sets 02:15:29 0° 272° (W) 3,918 5.8 -7.9°
